TimeEDT,TemperatureF,Dew PointF,Humidity,Sea Level PressureIn,VisibilityMPH,Wind Direction,Wind SpeedMPH,Gust SpeedMPH,PrecipitationIn,Events,Conditions,WindDirDegrees,DateUTC
12:15 AM,73.4,73.4,100,30.15,10.0,Calm,Calm,-,N/A,,Clear,0,2013-07-10 04:15:00
12:35 AM,75.2,75.2,100,30.14,7.0,Calm,Calm,-,N/A,,Clear,0,2013-07-10 04:35:00
12:55 AM,75.2,75.2,100,30.14,7.0,Calm,Calm,-,N/A,,Scattered Clouds,0,2013-07-10 04:55:00
1:15 AM,73.4,73.4,100,30.14,7.0,Calm,Calm,-,N/A,,Scattered Clouds,0,2013-07-10 05:15:00
1:35 AM,73.4,73.4,100,30.14,7.0,Calm,Calm,-,N/A,,Clear,0,2013-07-10 05:35:00
1:55 AM,73.4,73.4,100,30.13,7.0,Calm,Calm,-,N/A,,Scattered Clouds,0,2013-07-10 05:55:00
2:15 AM,71.6,71.6,100,30.13,7.0,Calm,Calm,-,N/A,,Clear,0,2013-07-10 06:15:00
2:35 AM,71.6,71.6,100,30.12,7.0,Calm,Calm,-,N/A,,Clear,0,2013-07-10 06:35:00
2:55 AM,71.6,71.6,100,30.11,7.0,Calm,Calm,-,N/A,,Clear,0,2013-07-10 06:55:00
3:15 AM,71.6,71.6,100,30.11,7.0,Calm,Calm,-,N/A,,Clear,0,2013-07-10 07:15:00
3:55 AM,71.6,71.6,100,30.11,7.0,Calm,Calm,-,N/A,,Clear,0,2013-07-10 07:55:00
4:15 AM,71.6,71.6,100,30.10,7.0,Calm,Calm,-,N/A,,Clear,0,2013-07-10 08:15:00
4:35 AM,71.6,71.6,100,30.11,7.0,Calm,Calm,-,N/A,,Clear,0,2013-07-10 08:35:00
4:55 AM,71.6,71.6,100,30.11,7.0,Calm,Calm,-,N/A,,Clear,0,2013-07-10 08:55:00
5:15 AM,71.6,71.6,100,30.11,7.0,Calm,Calm,-,N/A,,Clear,0,2013-07-10 09:15:00
5:35 AM,71.6,71.6,100,30.11,5.0,Calm,Calm,-,N/A,,Clear,0,2013-07-10 09:35:00
5:55 AM,71.6,71.6,100,30.10,5.0,Calm,Calm,-,N/A,,Clear,0,2013-07-10 09:55:00
6:15 AM,71.6,71.6,100,30.11,7.0,Calm,Calm,-,N/A,,Clear,0,2013-07-10 10:15:00
6:35 AM,71.6,71.6,100,30.11,5.0,Calm,Calm,-,N/A,,Clear,0,2013-07-10 10:35:00
7:15 AM,73.4,73.4,100,30.11,7.0,Calm,Calm,-,N/A,,Clear,0,2013-07-10 11:15:00
7:55 AM,75.2,75.2,100,30.12,7.0,Calm,Calm,-,N/A,,Clear,0,2013-07-10 11:55:00
8:35 AM,77.0,77.0,100,30.12,7.0,Calm,Calm,-,N/A,,Clear,0,2013-07-10 12:35:00
8:55 AM,78.8,77.0,94,30.13,7.0,South,3.5,-,N/A,,Clear,190,2013-07-10 12:55:00
9:15 AM,80.6,75.2,84,30.13,7.0,South,9.2,-,N/A,,Clear,190,2013-07-10 13:15:00
9:35 AM,80.6,73.4,79,30.13,7.0,SSW,9.2,-,N/A,,Scattered Clouds,200,2013-07-10 13:35:00
9:55 AM,82.4,73.4,74,30.12,7.0,SSW,5.8,-,N/A,,Mostly Cloudy,210,2013-07-10 13:55:00
10:15 AM,82.4,71.6,70,30.12,7.0,SW,6.9,-,N/A,,Scattered Clouds,230,2013-07-10 14:15:00
10:35 AM,82.4,71.6,70,30.12,7.0,SW,6.9,-,N/A,,Scattered Clouds,220,2013-07-10 14:35:00
10:55 AM,82.4,71.6,70,30.11,7.0,South,5.8,-,N/A,,Scattered Clouds,190,2013-07-10 14:55:00
11:15 AM,84.2,71.6,66,30.12,7.0,SSW,4.6,-,N/A,,Mostly Cloudy,200,2013-07-10 15:15:00
11:35 AM,82.4,71.6,70,30.11,7.0,SSW,6.9,-,N/A,,Scattered Clouds,200,2013-07-10 15:35:00
11:55 AM,86.0,71.6,62,30.11,7.0,South,4.6,-,N/A,,Clear,170,2013-07-10 15:55:00
12:15 PM,86.0,71.6,62,30.11,5.0,Calm,Calm,-,N/A,,Haze,0,2013-07-10 16:15:00
12:35 PM,86.0,71.6,62,30.10,7.0,SSW,5.8,-,N/A,,Scattered Clouds,210,2013-07-10 16:35:00
12:55 PM,86.0,71.6,62,30.10,7.0,SSW,3.5,-,N/A,,Mostly Cloudy,210,2013-07-10 16:55:00
1:15 PM,87.8,71.6,58,30.09,7.0,ESE,4.6,-,N/A,,Scattered Clouds,120,2013-07-10 17:15:00
1:35 PM,87.8,73.4,62,30.08,7.0,East,4.6,-,N/A,,Scattered Clouds,100,2013-07-10 17:35:00
1:55 PM,87.8,71.6,58,30.08,7.0,SE,5.8,-,N/A,,Clear,140,2013-07-10 17:55:00
2:15 PM,82.4,69.8,66,30.08,7.0,South,10.4,19.6,N/A,Thunderstorm,Mostly Cloudy,170,2013-07-10 18:15:00
2:35 PM,78.8,71.6,78,30.07,4.0,Calm,Calm,-,0.08,Rain,Light Rain,0,2013-07-10 18:35:00
2:55 PM,82.4,75.2,79,30.06,7.0,SSE,8.1,-,0.08,,Mostly Cloudy,150,2013-07-10 18:55:00
3:15 PM,86.0,75.2,70,30.05,7.0,SSE,9.2,-,N/A,,Scattered Clouds,150,2013-07-10 19:15:00
3:35 PM,86.0,73.4,66,30.04,7.0,SSW,5.8,-,N/A,,Scattered Clouds,200,2013-07-10 19:35:00
3:55 PM,87.8,73.4,62,30.03,5.0,South,8.1,-,N/A,,Haze,170,2013-07-10 19:55:00
4:15 PM,87.8,71.6,58,30.03,7.0,SSE,11.5,-,N/A,,Scattered Clouds,160,2013-07-10 20:15:00
4:35 PM,86.0,71.6,62,30.03,5.0,SSE,9.2,-,N/A,,Haze,150,2013-07-10 20:35:00
4:55 PM,86.0,73.4,66,30.02,7.0,SSE,6.9,-,N/A,,Scattered Clouds,160,2013-07-10 20:55:00
5:15 PM,86.0,71.6,62,30.02,7.0,SSE,10.4,-,N/A,,Scattered Clouds,160,2013-07-10 21:15:00
5:35 PM,84.2,71.6,66,30.02,7.0,South,6.9,-,N/A,,Clear,170,2013-07-10 21:35:00
6:15 PM,80.6,71.6,74,30.01,5.0,SSE,6.9,-,N/A,,Haze,160,2013-07-10 22:15:00
6:55 PM,82.4,71.6,70,30.01,7.0,South,8.1,-,N/A,,Clear,170,2013-07-10 22:55:00
7:35 PM,80.6,71.6,74,30.00,5.0,South,6.9,-,N/A,,Haze,170,2013-07-10 23:35:00
7:55 PM,80.6,71.6,74,30.00,7.0,SSE,5.8,-,N/A,,Clear,160,2013-07-10 23:55:00
8:15 PM,78.8,71.6,78,30.00,7.0,Calm,Calm,-,N/A,,Clear,0,2013-07-11 00:15:00
8:55 PM,77.0,73.4,89,30.00,7.0,Calm,Calm,-,N/A,,Clear,0,2013-07-11 00:55:00
9:35 PM,73.4,73.4,100,30.02,10.0,Calm,Calm,-,N/A,,Clear,0,2013-07-11 01:35:00
9:55 PM,73.4,73.4,100,30.02,7.0,Calm,Calm,-,N/A,,Clear,0,2013-07-11 01:55:00
10:15 PM,73.4,73.4,100,30.03,7.0,Calm,Calm,-,N/A,,Clear,0,2013-07-11 02:15:00
10:35 PM,73.4,73.4,100,30.03,10.0,Calm,Calm,-,N/A,,Clear,0,2013-07-11 02:35:00
10:55 PM,73.4,73.4,100,30.03,7.0,Calm,Calm,-,N/A,,Clear,0,2013-07-11 02:55:00
11:15 PM,73.4,73.4,100,30.03,7.0,Calm,Calm,-,N/A,,Clear,0,2013-07-11 03:15:00
11:35 PM,73.4,73.4,100,30.02,7.0,Calm,Calm,-,N/A,,Clear,0,2013-07-11 03:35:00
11:55 PM,73.4,73.4,100,30.02,7.0,Calm,Calm,-,N/A,,Clear,0,2013-07-11 03:55:00